Regional Weather Roundup
Issued by NWS Cleveland, OH

Home | Current Version | Previous Version | Graphics & Text | Print | Product List | Glossary On
Versions: 1 2 3 4 5 6 7 8 9 10 11 12 13 14 15 16 17 18 19 20 21 22 23 24 25 26 27 28 29 30 31 32 33 34 35 36 37 38 39 40 41 42 43 44 45 46 47 48 49 50
000
ASUS41 KCLE 251002
RWRCLE
OHIO REGIONAL WEATHER ROUNDUP
NATIONAL WEATHER SERVICE CLEVELAND, OH
600 AM EDT FRI JUL 25 2014

NOTE: "FAIR" INDICATES FEW OR NO CLOUDS BELOW 12,000 FEET WITH NO
SIGNIFICANT WEATHER AND/OR OBSTRUCTIONS TO VISIBILITY.

OHZ001>008-015>018-024>027-034-035-043-044-251100-
   NORTHWEST OHIO

CITY           SKY/WX    TMP DP  RH WIND       PRES   REMARKS
DEFIANCE       CLEAR     51  49  92 CALM      30.11R FOG
FINDLAY        CLEAR     51  48  89 SE3       30.09R
TOLEDO EXPRESS CLEAR     51  50  96 CALM      30.09R
TOLEDO EXEC    PTCLDY    53  48  83 S3        30.10R
LIMA           CLEAR     54  49  83 CALM      30.10R
$$

OHZ009>014-019>023-028>033-038-089-251100-
   NORTHEAST OHIO

CITY           SKY/WX    TMP DP  RH WIND       PRES   REMARKS
CLE-HOPKINS    PTCLDY    51  48  89 SW5       30.11R
CLE-LAKEFRONT  CLEAR     58  51  78 S5        30.08R
CUY CO. ARPT   NOT AVBL
LORAIN-ELYRIA  PTCLDY    53  49  86 SW3       30.11R
ASHTABULA      CLEAR     50  47  89 CALM      30.09R
AKRON-CANTON   CLEAR     54  48  80 CALM      30.08S
WOOSTER        PTCLDY    47  45  93 CALM      30.10R
MANSFIELD      CLEAR     48  48 100 CALM      30.11R
YOUNGSTOWN     PTCLDY    49  47  93 CALM      30.09R
$$

OHZ042-051>053-060>062-070>072-077>081-251100-
  SOUTHWEST OHIO

CITY           SKY/WX    TMP DP  RH WIND       PRES   REMARKS
CINC-COVINGTON PTCLDY    61  51  70 CALM      30.09R
CINC-LUNKEN    CLEAR     54  53  97 NE3       30.10R
HAMILTON       CLEAR     52  51  97 CALM      30.11R
DAYTON         PTCLDY    53  49  86 NW3       30.12R
WRIGHT-PAT AFB PTCLDY    53  51  94 CALM      30.11R
DAYTON GENERAL CLEAR     55  51  86 CALM      30.10R
WILMINGTON     PTCLDY    53  49  86 CALM      30.09R
$$

OHZ036-037-039>041-045>050-054>059-063>069-073>076-082>088-251100-
  CENTRAL AND SOUTHEAST OHIO

CITY           SKY/WX    TMP DP  RH WIND       PRES   REMARKS
COLUMBUS       PTCLDY    56  50  80 N3        30.08R
OSU AIRPORT    PTCLDY    51  49  92 CALM      30.09R
BOLTON FIELD   CLEAR     50  50 100 CALM      30.10R
RICKENBACK AFB CLEAR     56  48  75 CALM      30.08R
NEWARK         CLEAR     51  49  92 CALM      30.08R
MARION         PTCLDY    50  47  89 CALM      30.11R
LANCASTER      CLEAR     51  49  92 CALM      30.09R
ZANESVILLE     CLEAR     51  48  89 CALM      30.07S
NEW PHILLY     MOCLDY    49  48  97 CALM      30.09S
$$



USA.gov is the U.S. government's official web portal to all federal, state and local government web resources and services.